User: anonymous
Location: Caltech
(34.1382°N, 118.1253°W)
Time: 11:51:36
(UTC-07:00)
Language:

Iridium 12 - Orbit

View from above orbital plane
View from above orbital plane
View from above satellite
View from above satellite

Ground track
Ground track

The orbit data is extracted from the following two-line orbital elements,

1 24837U 97030B   14245.48389133  .00000089  00000-0  24882-4 0  9689
2 24837 086.3932 055.9269 0002081 108.2031 303.6819 14.34219114900930
Epoch (UTC): 02 September 2014 11:36:48
Eccentricity: 0.0002081
inclination: 86.3932°
perigee height: 776 km
apogee height: 779 km
right ascension of ascending node: 55.9269°
argument of perigee: 108.2031°
revolutions per day: 14.34219114
mean anomaly at epoch: 303.6819°
orbit number at epoch: 90093

The dashed part of the orbit path shows where the satellite is in the earth's shadow,  

DLR